Location: El Escondido
(32.5111°N, 116.6697°W)
Time: 16:08:09
(UTC+00:00)

Cosmos 1125 Rocket - Pass Details

Date: 03 August 2024
Orbit: 756 x 776 km, 74.0° (Epoch: 09 September)

Event Time Altitude Azimuth Distance (km) Brightness Sun altitude
Rises 12:29:47 0° 333° (NNW) 3,223 6.7 -7.2°
Reaches altitude 10° 12:32:18 10° 326° (NW) 2,291 5.9 -6.8°
Maximum altitude 12:37:04 38° 259° (W) 1,143 4.0 -5.8°
Drops below altitude 10° 12:41:48 10° 192° (SSW) 2,272 5.6 -4.9°
Sets 12:44:17 0° 184° (S) 3,193 6.4 -4.5°
